DELTA 1 DEB, 21445

Orbit data source: Space-Track

DELTA 1 DEB, 21445 is space debris in SSO originally from a launch on Thu, 12 Jun 1975 UTC launched from the Air Force Western Test Range (AFWTR). Debris objects in space refer to the collection of defunct objects orbiting the Earth. Examples of debris include non-operational satellites, rocket bodies, and fragments generated from explosions, collisions, or faulty payload assembly.

Loading next visibility...
Identifier
21445, 1975-052ED
Orbit
SSO
Country
Flag of USUS
Related business
Manufacturer
Unknown
Mission
Spacecraft
Bus & Motor
Unknown
Mass
Unknown
Launch date (UTC)
1975-06-12 (51 years ago)
Launch vehicle
Unknown
Launch site
Air Force Western Test Range (AFWTR)
Object type
Payload
Rocket body
Debris
Shape & HBR
Unknown shape, 0.2 m
Radar Cross Section
Medium (>0.1 m² and <1 m²)

Expand to show TLE details & history
Last TLE update: 2 days ago

TLE from 2 days ago
0 DELTA 1 DEB
1 21445U 75052ED  26171.31026176 -.00000010  00000-0  64227-4 0  9995
2 21445  99.6483 187.0033 0082502  80.0294 299.8223 13.28568313703150
Epoch: 2026-06-20T07:26Z
TLE epoch observation values (Epoch: 2026-06-20T07:26:46.616Z)
Latitude
18.74558°
Longitude
163.49181°
Altitude
1,123.916 km
Speed
7.307 km/s
True Right ascension
12h 14m 51s
True Declination
18° 38' 47"
Sunlit
Object was in daylight at epoch
Visualization orbit readout
Latitude
Unknown
Longitude
Unknown
Altitude
Unknown
Speed
Unknown
Apparent Right ascension
Unknown
Apparent Declination
Unknown
Sunlit
N/A
Visualization observer readout
Local Sidereal Time
07:42:20
Azimuth
Unknown
Elevation
Unknown
Doppler factor
Unknown
Orbital elements
Apogee altitude
1,211.6 km
Perigee altitude
1,087.391 km
Semi-major axis
7,527.632 km
Eccentricity
0.00825
Inclination
99.6483°
RAAN
187.0033°
Arg. of periapsis
80.0294°
True anomaly
298.9979°
Mean anomaly
299.8223°
Eccentric anomaly
299.41052°
Mean motion
3.32319 °/min
Orbital period
108.33 mins
BSTAR
0.000064227
Loading maneuver chart data...
Computing Atmospheric mass density...
Loading historical data...
Loading historical data...
Loading historical data...
Loading historical data...
Loading historical data...
Loading historical data...
Loading historical data...

Documentation

Showing up to 5 results
|